Dewpoint
-12 -6 1 5 7 4 4 3 -1 -1 -2 -2 -1 0 5 5 7 9 6 7 9 9 7 7 9 9 9 9 8 7 7 8 8 6 9 9 7 6 8 11 9 10 12 11 11 6 9 10 10
-7 2 3 6 5 3 0 1 0 0 -1 -2 -2 -1 3 7 7 8 7 7 9 7 7 7 8 8 8 8 7 6 8 5 2 6 4 7 6 4 9 10 9 10 11 11 9 7 8 9 10
-3 2 5 5 1 1 3 -0 -0 -2 -3 -4 -2 0 4 7 7 7 7 8 7 9 9 6 7 8 8 8 7 6 5 2 2 2 2 5 5 6 10 10 9 9 9 9 8 8 8 9 10
-0 -1 0 1 0 -4 -2 -2 -3 -6 -7 -5 -3 3 5 7 7 7 7 7 9 8 8 8 6 8 8 8 6 4 3 3 3 2 2 4 3 7 9 9 9 9 9 9 8 8 9 10 10
1 1 1 -1 -2 -6 -6 -4 -4 -5 -7 -5 -5 4 7 7 7 7 7 7 8 8 7 8 7 8 7 6 7 2 3 4 5 6 5 6 4 8 9 9 9 9 9 9 8 9 8 10 11
0 -2 0 -1 -5 -7 -6 -6 -4 -6 -6 -6 3 6 7 7 7 7 7 6 8 8 7 8 8 7 7 5 4 -2 -2 -7 -15 -12 -4 4 7 9 9 9 9 9 9 8 9 9 9 10 11
3 1 -2 -3 -7 -7 -6 -6 -5 -7 -6 -7 1 4 7 7 7 7 6 7 8 7 8 7 8 7 6 5 1 -13 -22 -23 -23 -17 -10 -0 8 8 8 8 9 8 8 9 8 9 9 10 10
-0 0 -3 -7 -7 -8 -6 -7 -7 -7 -4 -3 -3 3 7 7 7 6 5 6 7 7 8 8 7 6 5 2 -7 -22 -27 -28 -28 -22 -11 -1 4 6 8 8 8 8 8 8 8 9 10 10 10
-3 2 -2 -4 -6 -6 -7 -6 -8 -7 -6 -5 -4 1 4 7 7 6 6 7 7 8 7 8 7 7 4 -2 -19 -26 -28 -29 -28 -19 -7 3 -2 -4 -7 -6 3 7 7 7 8 9 9 9 10
1 1 -2 -4 -5 -5 -7 -6 -8 -7 -6 -2 -1 5 6 7 7 6 7 7 7 7 7 6 6 6 4 -4 -19 -24 -26 -26 -23 -15 -8 -10 -10 -12 -14 -14 -16 -14 -0 8 8 8 8 9 9
-4 0 -5 -6 -4 -6 -6 -7 -8 -7 -4 -4 2 7 7 7 7 7 7 7 6 7 7 6 6 6 1 -8 -16 -22 -24 -24 -24 -19 -15 -11 -12 -15 -15 -14 -13 -2 8 8 8 5 8 8 9
-4 -5 -6 -3 -4 -6 -6 -7 -7 -8 -6 -5 -3 5 7 8 7 7 7 7 6 6 5 6 6 5 -0 -10 -15 -19 -21 -22 -21 -23 -18 -13 -12 -13 -17 -14 -10 -4 2 5 3 5 7 8 8
-4 -5 -6 -3 -5 -6 -6 -6 -7 -8 -7 -6 1 5 7 8 8 7 7 7 6 6 6 6 6 3 -4 -12 -14 -18 -19 -20 -18 -17 -17 -17 -18 -18 -17 -15 -12 -9 -4 0 3 4 6 7 7
-5 -5 -4 -5 -6 -8 -7 -6 -7 -7 -7 2 4 6 7 7 7 7 7 7 6 6 6 6 3 -1 -8 -11 -14 -17 -19 -19 -16 -15 -16 -19 -20 -19 -17 -16 -14 -11 -9 -7 -3 0 4 5 4
-5 -3 -5 -6 -6 -6 -8 -6 -5 -6 -4 1 3 6 7 7 7 7 7 7 6 6 6 6 2 -4 -7 -10 -13 -17 -18 -17 -15 -14 -14 -17 -19 -19 -18 -18 -17 -16 -13 -10 -7 -4 -1 3 5
-5 -4 -1 -4 -5 -5 -6 -2 -6 -6 -3 -0 2 5 6 7 7 7 7 7 7 6 6 5 2 -2 -6 -10 -13 -16 -17 -16 -15 -14 -14 -15 -18 -19 -19 -19 -18 -16 -13 -11 -10 -8 -6 -3 -0
-3 -1 -2 -2 -6 -4 -4 -4 -5 -5 -4 -1 1 4 6 7 7 7 7 7 7 6 6 5 1 -4 -7 -9 -11 -15 -17 -16 -14 -13 -13 -15 -17 -19 -20 -21 -20 -17 -15 -14 -15 -15 -15 -14 -15
-1 -3 -5 -2 -3 -4 -3 -4 -6 -6 -5 -3 0 3 5 6 7 7 7 7 7 6 6 4 1 -4 -7 -8 -9 -11 -16 -15 -14 -13 -12 -14 -17 -19 -20 -20 -20 -19 -18 -18 -19 -21 -22 -24 -24
-5 -5 -4 -4 -3 -3 -2 -3 -5 -6 -5 -5 -1 3 4 6 6 7 7 6 6 6 6 5 2 -1 -3 -6 -8 -8 -13 -15 -14 -13 -12 -13 -17 -18 -19 -19 -19 -19 -19 -20 -20 -21 -21 -19 -18
-4 -4 -4 -4 -3 -2 -2 -2 -4 -5 -5 -5 -4 -0 3 4 5 6 7 6 6 6 6 5 3 2 1 -3 -7 -7 -9 -14 -15 -13 -12 -12 -15 -17 -17 -18 -18 -18 -19 -19 -18 -18 -16 -15 -12
-4 -3 -3 -2 -3 -4 -3 -2 -3 -5 -6 -6 -5 -4 0 3 5 5 7 6 6 6 6 6 4 3 2 -0 -4 -8 -7 -10 -14 -14 -13 -12 -13 -14 -13 -16 -17 -18 -18 -17 -16 -15 -14 -11 -8
-2 -5 -5 -1 0 5 -3 3 -4 -4 -5 -5 -5 -6 -4 1 5 6 7 7 6 6 6 6 5 4 3 2 -0 -4 -8 -8 -11 -14 -13 -12 -11 -11 -12 -12 -14 -17 -17 -17 -16 -14 -12 -10 -9
-3 -5 -3 -2 -0 1 -2 4 3 -5 -4 -5 -5 -5 -5 -4 1 5 6 7 6 6 6 6 5 5 4 3 1 -0 -3 -8 -8 -12 -14 -13 -12 -10 -10 -10 -10 -13 -17 -17 -16 -14 -12 -9 -8
-4 -3 -3 -2 2 3 1 1 1 -6 -6 -5 -4 -4 -4 -4 -5 0 4 6 7 6 6 6 5 5 4 4 2 1 0 -2 -8 -8 -11 -14 -12 -11 -10 -9 -9 -9 -11 -15 -16 -15 -14 -11 -10
-2 2 6 7 3 4 -1 1 -1 -6 -5 -6 -4 -4 -3 -1 -4 -4 4 5 6 6 5 6 5 5 5 4 3 2 2 1 -4 -9 -8 -10 -13 -13 -12 -10 -9 -9 -9 -9 -12 -15 -15 -15 -14
0 4 7 5 6 2 -5 1 -1 -5 -4 -4 -4 -3 -0 -1 -3 -3 3 5 5 5 5 5 5 5 5 4 3 2 2 1 -1 -5 -8 -8 -8 -11 -13 -12 -11 -10 -8 -8 -9 -9 -10 -12 -13
-0 2 -2 2 -2 1 -1 -4 -4 -5 -4 -3 -3 -2 0 1 -0 2 4 5 4 5 5 5 5 5 5 4 3 3 2 2 0 -2 -5 -7 -7 -7 -8 -10 -12 -12 -11 -9 -8 -8 -8 -9 -9
-0 -2 0 3 3 2 -4 -2 -4 -3 -3 -3 -3 -1 -0 1 2 3 3 4 4 4 4 4 5 5 5 4 4 3 2 2 1 -0 -2 -5 -7 -7 -7 -7 -7 -8 -11 -11 -11 -10 -9 -8 -7
-0 1 1 2 2 4 1 -1 -3 -3 -4 -3 -3 -2 -1 0 1 2 3 3 3 4 4 4 4 4 4 4 4 3 2 2 2 0 -1 -2 -4 -6 -7 -7 -7 -6 -6 -6 -8 -10 -11 -10 -9
-0 2 2 3 2 1 2 1 -2 -1 -3 -3 -3 -2 -2 -1 -0 0 1 2 2 3 3 3 3 3 3 3 3 2 2 2 1 0 -1 -2 -3 -4 -5 -5 -5 -5 -6 -5 -5 -5 -5 -7 -10
Wind_Speed
8 8 6 0 1 2 7 3 7 7 5 8 10 12 12 17 6 7 19 13 14 15 15 19 14 11 8 5 4 5 5 7 9 10 13 13 13 14 16 15 17 15 14 11 14 11 14 16 16
10 5 3 5 2 4 5 8 10 10 12 13 10 7 10 5 7 17 19 16 14 12 15 16 14 10 6 4 4 3 6 6 9 11 11 12 13 16 18 18 17 14 14 13 14 14 13 14 17
11 8 3 3 3 3 4 9 11 14 9 7 6 13 7 6 10 12 20 21 18 17 16 15 15 10 6 4 4 4 4 8 10 11 12 12 13 17 18 17 14 13 11 11 11 11 12 14 19
5 1 5 2 8 7 6 12 16 11 6 6 17 8 10 10 7 16 24 21 17 15 12 15 12 10 6 4 4 4 8 10 10 12 12 14 14 17 18 15 14 13 11 12 11 12 15 17 20
5 2 3 4 10 3 7 10 14 7 10 8 3 5 8 10 13 25 17 20 16 18 14 14 10 11 7 4 7 5 11 11 12 12 12 14 16 18 16 14 12 12 12 12 13 13 13 18 18
3 3 2 6 9 5 5 4 9 9 15 9 15 12 7 16 22 22 19 17 15 19 15 15 12 11 6 3 2 4 9 8 10 11 12 16 15 17 15 13 13 14 11 11 12 12 16 17 17
2 2 4 8 6 5 5 6 8 12 13 4 17 5 11 20 20 20 17 18 13 16 14 14 11 7 6 4 2 4 7 9 10 11 13 15 16 15 15 14 13 12 12 12 13 15 18 17 17
1 2 4 2 4 3 8 7 5 7 5 12 5 7 9 25 24 22 21 20 17 16 16 13 10 7 7 5 5 6 7 8 9 11 13 14 13 13 12 12 11 13 15 15 16 19 18 17 16
2 1 3 4 5 2 9 5 2 8 12 8 3 7 11 32 27 25 22 20 17 16 16 14 10 10 5 7 8 8 8 8 9 11 13 14 8 9 10 11 13 13 13 15 21 18 19 18 17
3 2 3 4 4 5 7 5 11 6 13 7 10 17 28 32 30 28 26 21 19 19 16 13 11 8 8 8 7 8 8 9 10 12 11 9 8 9 11 12 11 13 18 22 21 20 18 19 19
5 3 4 2 5 3 5 4 8 4 6 13 20 31 31 30 29 29 25 18 19 18 15 15 12 10 8 8 8 8 8 8 9 9 10 10 9 10 11 13 16 20 24 20 17 17 20 18 19
3 7 2 3 1 1 1 3 4 8 4 9 20 26 31 30 30 27 23 22 18 16 11 14 14 12 11 8 8 8 8 8 8 9 9 9 8 9 10 12 15 16 19 18 16 17 21 19 18
3 2 2 2 2 1 1 3 2 9 7 9 22 26 29 28 28 24 23 17 19 18 17 18 18 14 11 11 9 8 8 8 8 8 9 8 9 9 11 12 13 15 15 15 16 17 17 18 18
2 3 4 3 4 2 3 4 3 7 13 19 23 25 27 27 26 25 24 22 21 20 18 17 15 13 12 10 10 9 8 8 8 8 8 9 10 11 12 13 14 15 15 16 16 17 17 17 16
4 3 2 7 6 3 5 4 7 15 16 19 20 24 25 26 23 26 25 24 22 20 18 16 15 13 13 12 11 10 9 9 8 9 9 10 10 11 12 12 13 13 14 14 14 15 16 16 15
4 3 3 4 10 4 6 5 12 19 20 20 20 22 24 24 23 25 24 24 21 21 20 17 15 14 14 13 11 10 10 9 9 9 10 10 11 11 11 12 13 15 15 15 15 15 16 15 14
6 4 7 4 12 5 6 4 5 15 17 19 21 23 24 24 23 25 26 21 23 22 21 19 15 15 15 14 12 10 10 10 9 9 10 10 11 12 11 12 14 15 15 15 15 16 14 17 17
6 5 6 7 8 7 6 8 6 12 14 20 22 22 23 26 28 28 26 24 24 23 21 18 17 16 15 14 12 11 10 9 10 9 10 11 11 12 12 13 14 14 16 16 16 17 19 18 18
3 4 5 4 5 5 8 7 10 17 14 15 25 26 25 25 25 30 26 25 25 24 23 20 19 17 14 14 13 12 11 10 10 9 10 11 11 11 12 13 13 14 15 16 16 17 17 18 16
8 6 4 3 4 2 4 12 9 10 12 19 22 26 26 25 24 32 28 28 28 27 25 22 20 17 15 13 13 12 12 12 11 11 11 11 12 12 13 13 14 15 15 15 16 16 18 18 15
8 8 5 3 5 3 3 5 6 7 12 13 9 12 26 28 29 29 30 31 30 29 28 24 22 19 16 15 14 13 12 11 11 12 12 12 13 13 13 13 13 13 14 14 15 15 15 13 12
5 6 6 8 5 4 5 4 7 9 8 8 11 13 16 27 27 27 32 33 31 30 29 25 23 21 18 15 13 11 11 11 11 11 12 13 13 14 13 13 13 13 14 14 14 15 14 11 9
2 2 6 4 3 4 3 2 6 11 6 8 14 17 16 19 23 31 32 31 31 30 30 28 24 23 20 16 14 12 11 10 11 12 12 13 13 13 13 13 13 13 14 14 15 15 14 11 9
8 7 7 4 4 2 7 7 5 6 6 9 12 15 15 20 24 22 30 30 29 29 30 29 26 24 22 18 16 14 13 11 10 11 12 12 13 13 13 13 13 13 14 14 15 15 15 14 11
1 5 2 1 1 6 1 5 10 3 3 8 15 16 13 15 23 27 31 32 30 30 30 31 28 26 24 21 18 16 13 10 10 11 11 12 13 13 13 13 13 14 14 15 16 17 17 17 17
7 5 5 8 5 4 2 7 6 5 11 16 19 16 13 14 17 24 28 30 30 30 29 31 29 27 25 23 20 17 14 11 10 10 11 12 12 12 13 13 14 15 15 16 16 18 19 19 19
5 5 1 5 1 3 5 4 2 6 6 9 13 16 15 16 17 21 23 27 28 28 27 29 29 25 25 23 22 20 17 13 11 11 12 11 12 12 12 12 14 15 15 16 17 18 18 19 19
2 1 3 2 4 5 5 5 5 9 11 9 11 17 18 18 19 20 21 23 21 23 23 23 23 23 23 23 23 21 18 15 12 12 11 11 11 12 12 12 13 14 15 16 17 18 19 20 20
3 1 2 2 3 5 2 6 0 8 16 16 15 21 21 21 21 22 23 22 24 24 24 24 24 22 22 22 21 20 18 16 14 13 12 11 13 13 13 13 13 14 15 15 17 18 19 20 20
1 4 5 4 5 3 3 6 3 4 9 18 20 24 23 22 22 22 23 23 23 24 24 25 25 23 21 21 20 18 17 15 14 13 13 12 12 13 13 13 14 14 15 16 17 17 19 20 21
Wind_Direction
143 134 115 269 258 232 257 113 91 102 78 71 65 73 101 46 32 124 133 168 165 152 155 157 144 130 144 148 154 165 108 85 88 77 71 68 68 83 82 83 94 97 90 71 69 67 75 71 79
131 126 134 273 256 210 246 121 83 81 107 107 72 80 39 77 80 129 135 148 140 138 136 157 151 137 149 164 164 197 103 95 84 77 80 77 72 91 90 91 94 93 90 79 69 72 75 76 83
137 148 266 214 231 268 22 89 105 101 123 120 107 68 58 96 113 127 146 148 138 141 140 144 161 142 146 161 118 138 114 93 86 84 83 81 79 92 93 92 102 103 98 63 58 63 69 86 87
106 100 272 272 255 258 52 104 110 114 89 69 117 80 86 112 128 147 153 141 164 136 147 140 152 149 162 146 118 116 104 89 85 83 89 84 91 93 91 104 106 106 104 84 72 71 85 87 89
146 244 270 214 260 72 67 84 135 159 136 126 114 89 91 123 136 139 144 147 158 141 151 138 151 164 181 222 106 107 100 93 90 90 88 88 101 97 102 110 114 109 103 96 84 90 93 86 91
252 259 269 235 245 111 75 139 163 129 111 112 99 105 104 135 145 144 153 147 160 139 151 146 165 178 192 194 104 103 111 107 97 94 103 103 101 105 118 107 121 112 107 99 97 102 91 91 96
237 189 248 280 305 115 133 168 190 120 127 139 140 78 137 149 151 152 137 153 164 147 155 165 175 186 218 216 147 111 101 98 99 100 105 108 109 113 121 118 117 118 122 112 107 109 93 95 100
278 13 277 271 293 269 114 149 15 120 72 127 116 148 163 164 158 148 148 167 152 158 160 170 171 183 212 185 138 127 115 104 107 109 110 111 114 119 122 121 116 115 126 134 120 104 93 95 106
183 326 259 247 208 33 121 121 56 85 122 101 114 128 168 161 155 155 159 168 162 159 176 156 143 151 191 137 144 133 124 113 117 119 121 113 126 121 125 135 135 115 113 112 110 112 106 103 109
181 219 248 351 27 27 146 201 150 148 133 103 106 124 150 157 157 163 164 167 169 176 170 162 153 211 212 160 145 133 127 121 123 128 128 124 107 117 108 112 121 121 117 118 121 131 116 112 116
205 225 15 73 43 41 164 216 146 196 182 179 158 151 159 159 163 173 172 168 171 177 183 174 157 212 180 168 153 142 134 126 127 130 127 124 123 120 116 119 122 127 126 133 130 137 126 120 125
261 247 72 41 21 41 286 231 179 233 116 122 175 173 166 165 173 175 175 170 170 172 172 155 185 201 186 164 160 151 144 141 132 135 138 138 136 133 127 130 135 137 144 150 139 141 141 137 130
215 232 168 209 203 200 319 247 206 189 153 136 163 168 168 170 177 172 177 173 169 166 162 178 195 198 177 174 168 161 160 149 145 139 145 145 145 142 139 137 138 141 146 147 147 147 150 156 158
185 192 174 208 197 198 240 211 118 208 167 145 156 168 171 175 180 169 175 174 175 173 171 188 190 183 174 174 174 172 161 159 155 148 146 143 143 144 146 144 145 147 149 151 153 154 156 161 167
135 144 193 210 197 216 211 261 209 160 157 156 165 169 173 182 189 175 177 180 177 177 171 181 187 179 178 178 178 172 165 163 158 156 152 150 148 147 149 151 148 143 143 145 146 149 156 161 162
179 218 211 165 153 184 186 261 219 176 163 167 172 172 177 182 193 176 181 184 177 179 173 182 190 186 186 180 181 172 172 165 164 162 160 157 154 152 153 150 147 144 143 145 147 148 151 155 155
207 214 201 169 185 140 193 259 130 160 175 174 178 174 177 182 190 175 188 194 181 179 173 185 185 183 186 181 182 176 177 172 170 168 163 159 158 158 157 152 151 148 146 144 145 142 144 142 138
191 213 239 187 205 197 189 251 171 189 200 184 178 178 182 187 194 174 190 184 179 181 177 188 182 185 187 185 182 179 180 176 176 174 166 164 164 161 157 156 154 153 151 148 146 144 141 140 135
272 311 258 114 150 143 226 251 214 178 201 220 180 180 188 194 199 174 191 186 184 185 182 188 186 189 189 186 186 183 183 182 181 174 172 169 169 165 160 159 156 153 153 151 150 148 145 134 130
256 244 252 75 131 156 248 237 244 167 190 210 185 182 187 192 194 185 182 187 188 189 188 191 191 191 186 186 184 189 184 185 186 180 177 175 174 172 165 164 163 162 162 160 157 155 149 146 141
216 198 216 165 139 254 320 279 226 189 166 192 190 159 184 185 187 188 182 189 191 194 194 194 194 191 188 189 190 193 191 190 187 185 183 183 181 183 177 175 176 173 171 170 166 163 161 155 152
227 212 207 140 127 222 165 265 209 181 181 165 204 206 169 185 186 187 187 190 192 196 195 197 197 191 192 193 193 192 194 192 190 191 190 192 189 191 191 189 187 186 184 182 179 171 174 166 167
214 11 153 149 173 55 198 77 258 135 187 192 188 196 198 191 184 187 189 191 194 196 197 195 202 193 195 192 192 189 186 191 192 194 196 198 199 199 201 202 201 198 198 196 196 194 191 192 179
139 88 63 52 102 303 200 170 243 189 194 173 157 166 189 199 197 187 194 190 192 198 199 196 199 197 195 192 192 189 189 198 196 196 200 202 205 206 207 209 211 210 211 212 211 211 210 213 217
110 129 85 72 355 231 260 195 233 151 21 168 147 155 183 195 201 192 185 185 189 194 197 196 197 199 196 193 194 193 196 196 197 201 205 209 211 213 214 216 217 219 219 222 223 225 227 230 235
198 189 169 185 201 212 102 227 244 87 87 98 135 148 159 171 179 185 178 179 188 190 192 193 194 198 196 194 197 198 200 200 202 203 208 212 215 217 218 220 223 225 226 228 232 235 238 241 245
193 207 168 106 299 63 203 253 196 140 132 134 137 148 154 157 172 167 169 173 185 185 184 187 187 196 195 195 203 203 204 206 203 211 212 216 220 224 227 227 231 234 236 237 240 243 245 247 250
179 262 96 9 174 232 236 222 218 200 181 170 163 151 149 150 151 157 169 177 175 181 178 183 189 192 193 196 202 206 208 209 212 217 219 223 227 232 235 235 237 240 243 245 246 248 251 253 255
162 214 245 136 175 184 197 253 68 208 178 170 165 154 149 146 147 149 152 158 164 164 166 172 176 189 191 195 201 205 208 211 216 223 226 226 232 238 240 244 245 248 249 252 254 255 256 258 259
68 186 173 147 233 221 149 267 21 329 158 158 154 154 156 154 151 155 156 156 161 163 167 170 176 184 188 192 199 203 208 213 216 220 224 230 235 240 242 247 249 251 254 255 257 259 261 262 263
Height
1503 1504 1507 1508 1516 1506 1503 1493 1487 1497 1503 1508 1508 1507 1517 1522 1525 1537 1539 1539 1539 1541 1543 1546 1548 1548 1549 1549 1549 1550 1550 1550 1550 1550 1551 1552 1552 1553 1554 1557 1559 1561 1561 1561 1561 1561 1561 1562 1563
1502 1506 1508 1508 1515 1513 1500 1485 1493 1498 1504 1508 1510 1513 1516 1528 1529 1533 1538 1540 1540 1541 1543 1545 1548 1550 1550 1550 1550 1550 1551 1550 1550 1551 1552 1553 1553 1554 1556 1559 1562 1563 1563 1563 1563 1563 1564 1565 1565
1503 1506 1509 1506 1506 1509 1499 1488 1495 1500 1506 1506 1512 1515 1521 1531 1532 1534 1538 1539 1542 1543 1544 1546 1548 1550 1550 1550 1550 1551 1551 1551 1551 1552 1552 1553 1555 1556 1559 1562 1564 1565 1566 1567 1567 1566 1566 1568 1568
1505 1508 1509 1511 1507 1492 1491 1494 1498 1502 1507 1508 1511 1522 1527 1532 1533 1535 1537 1540 1540 1543 1545 1547 1549 1551 1551 1551 1551 1551 1552 1552 1552 1553 1553 1555 1556 1558 1561 1564 1566 1568 1569 1570 1569 1569 1570 1570 1570
1507 1505 1510 1507 1503 1489 1490 1494 1498 1501 1505 1510 1511 1523 1529 1532 1534 1536 1538 1541 1541 1545 1546 1548 1550 1551 1551 1552 1552 1552 1553 1553 1554 1555 1556 1557 1558 1561 1564 1566 1568 1570 1571 1572 1572 1572 1572 1572 1573
1506 1504 1512 1513 1499 1489 1492 1496 1498 1500 1506 1511 1515 1521 1531 1534 1535 1538 1539 1541 1542 1545 1547 1549 1550 1551 1552 1552 1553 1553 1554 1554 1555 1556 1556 1558 1561 1563 1566 1568 1569 1571 1572 1573 1573 1574 1574 1574 1575
1504 1505 1508 1503 1496 1492 1493 1498 1498 1500 1506 1511 1513 1521 1531 1534 1536 1538 1541 1543 1543 1546 1548 1549 1550 1551 1553 1553 1554 1555 1555 1556 1556 1557 1558 1560 1562 1564 1566 1568 1570 1571 1572 1574 1575 1575 1576 1577 1578
1502 1503 1502 1496 1500 1496 1492 1497 1499 1501 1508 1510 1512 1517 1528 1530 1536 1539 1542 1541 1544 1546 1548 1550 1551 1552 1552 1553 1555 1556 1556 1557 1558 1559 1560 1561 1562 1564 1566 1568 1570 1571 1572 1573 1575 1578 1579 1580 1581
1503 1509 1509 1499 1496 1494 1495 1498 1502 1505 1507 1510 1513 1514 1516 1525 1533 1538 1539 1542 1544 1546 1548 1550 1553 1553 1551 1554 1555 1557 1557 1558 1559 1560 1561 1562 1562 1564 1564 1566 1569 1572 1573 1575 1578 1580 1581 1582 1583
1502 1507 1500 1496 1492 1495 1497 1498 1502 1506 1508 1513 1515 1517 1519 1524 1531 1536 1537 1540 1544 1546 1548 1551 1552 1552 1553 1554 1556 1557 1558 1559 1560 1561 1562 1563 1565 1566 1566 1568 1570 1571 1574 1577 1579 1580 1582 1584 1585
1500 1502 1496 1495 1496 1496 1498 1500 1501 1504 1508 1507 1511 1515 1520 1524 1529 1534 1537 1539 1542 1546 1548 1550 1552 1551 1553 1554 1556 1557 1559 1560 1561 1562 1563 1564 1566 1567 1568 1570 1571 1572 1575 1578 1580 1582 1584 1586 1587
1501 1496 1495 1497 1498 1498 1499 1499 1500 1503 1505 1503 1506 1512 1517 1523 1526 1531 1536 1538 1541 1544 1547 1550 1552 1551 1552 1555 1556 1558 1559 1560 1562 1563 1564 1565 1567 1568 1569 1571 1573 1574 1576 1578 1580 1583 1585 1586 1588
1498 1494 1496 1498 1499 1499 1500 1499 1500 1502 1504 1505 1507 1512 1517 1523 1525 1530 1535 1538 1542 1544 1547 1549 1550 1550 1552 1554 1556 1558 1559 1561 1562 1564 1565 1566 1568 1569 1571 1572 1574 1575 1577 1579 1581 1583 1585 1588 1589
1492 1494 1496 1497 1498 1499 1501 1499 1499 1501 1502 1507 1508 1512 1517 1521 1523 1528 1533 1537 1540 1542 1545 1547 1549 1550 1552 1554 1556 1558 1560 1561 1563 1565 1566 1567 1569 1570 1572 1574 1575 1576 1577 1579 1581 1583 1586 1588 1590
1492 1496 1496 1496 1497 1498 1501 1500 1499 1499 1501 1505 1509 1512 1516 1520 1522 1526 1531 1535 1538 1540 1543 1545 1548 1549 1551 1554 1556 1557 1559 1562 1564 1565 1567 1568 1570 1571 1573 1575 1576 1578 1579 1581 1583 1584 1586 1589 1590
1493 1495 1498 1487 1494 1497 1501 1499 1488 1495 1499 1504 1508 1511 1514 1517 1521 1526 1529 1532 1536 1539 1542 1544 1546 1549 1551 1553 1556 1558 1559 1561 1564 1565 1567 1569 1571 1572 1574 1576 1578 1579 1580 1582 1583 1585 1587 1589 1591
1492 1498 1495 1496 1493 1496 1498 1494 1492 1494 1498 1502 1505 1508 1512 1516 1520 1524 1527 1530 1534 1537 1540 1542 1545 1548 1550 1552 1555 1558 1559 1561 1564 1566 1568 1570 1571 1573 1575 1577 1579 1580 1582 1584 1586 1587 1589 1591 1592
1489 1493 1486 1489 1492 1493 1496 1496 1493 1494 1496 1498 1502 1506 1511 1513 1515 1520 1525 1529 1531 1535 1538 1541 1544 1547 1550 1552 1555 1557 1559 1561 1563 1565 1568 1570 1572 1574 1576 1578 1580 1582 1583 1585 1588 1589 1591 1593 1594
1476 1482 1482 1479 1487 1491 1494 1491 1489 1490 1494 1495 1497 1501 1507 1510 1513 1518 1523 1526 1530 1533 1536 1539 1542 1545 1548 1551 1553 1556 1558 1560 1562 1565 1567 1570 1572 1574 1577 1579 1581 1583 1585 1587 1589 1591 1593 1595 1597
1481 1484 1483 1486 1488 1492 1490 1490 1485 1485 1487 1490 1492 1496 1501 1507 1510 1515 1519 1523 1526 1530 1534 1536 1540 1544 1547 1550 1552 1555 1557 1559 1562 1564 1567 1569 1572 1575 1577 1579 1581 1583 1585 1588 1590 1592 1593 1595 1597
1479 1482 1483 1484 1490 1493 1493 1491 1484 1482 1482 1486 1489 1492 1496 1500 1504 1510 1515 1519 1522 1526 1530 1534 1537 1542 1545 1548 1551 1553 1555 1558 1560 1563 1565 1568 1571 1574 1576 1578 1581 1583 1586 1588 1591 1593 1595 1596 1597
1484 1474 1476 1487 1494 1507 1491 1512 1477 1477 1481 1483 1486 1489 1493 1497 1500 1505 1511 1515 1517 1522 1528 1532 1534 1539 1543 1546 1550 1552 1554 1557 1559 1562 1564 1567 1570 1573 1575 1578 1580 1583 1585 1588 1591 1593 1595 1596 1598
1477 1475 1477 1484 1494 1498 1494 1512 1483 1472 1482 1482 1483 1487 1490 1493 1497 1500 1506 1512 1514 1519 1525 1529 1532 1537 1541 1545 1549 1551 1553 1555 1557 1560 1563 1566 1569 1572 1574 1577 1579 1582 1585 1587 1590 1592 1594 1596 1597
1475 1480 1484 1487 1499 1523 1497 1499 1482 1474 1469 1473 1479 1483 1486 1489 1493 1498 1502 1509 1511 1516 1522 1527 1529 1534 1539 1543 1547 1550 1551 1553 1556 1559 1561 1564 1567 1570 1573 1576 1578 1580 1583 1585 1588 1591 1593 1594 1596
1475 1484 1502 1507 1525 1510 1486 1494 1470 1467 1466 1463 1472 1479 1483 1486 1489 1495 1498 1503 1509 1512 1517 1523 1526 1531 1536 1541 1544 1548 1550 1552 1555 1557 1559 1562 1565 1567 1570 1573 1576 1578 1580 1583 1585 1588 1590 1592 1594
1480 1477 1485 1498 1502 1491 1491 1493 1469 1469 1469 1469 1473 1478 1482 1484 1488 1492 1496 1500 1505 1509 1515 1519 1523 1527 1533 1538 1542 1546 1548 1551 1553 1555 1557 1560 1563 1565 1567 1570 1573 1575 1577 1580 1582 1585 1587 1589 1591
1475 1478 1470 1485 1486 1501 1484 1470 1471 1471 1473 1474 1476 1478 1482 1484 1487 1490 1494 1498 1503 1508 1512 1516 1520 1525 1530 1535 1539 1543 1546 1549 1551 1553 1556 1558 1560 1563 1565 1568 1570 1572 1574 1577 1579 1581 1583 1585 1587
1470 1472 1478 1488 1499 1490 1469 1461 1459 1471 1471 1473 1476 1478 1481 1484 1487 1490 1494 1499 1503 1507 1511 1515 1519 1523 1528 1532 1536 1540 1544 1547 1549 1552 1555 1557 1559 1561 1563 1565 1567 1569 1571 1573 1575 1578 1579 1581 1583
1474 1476 1473 1472 1475 1480 1483 1468 1453 1454 1458 1466 1472 1476 1479 1483 1487 1490 1494 1498 1502 1506 1509 1513 1517 1521 1525 1529 1533 1537 1541 1544 1547 1550 1552 1555 1556 1558 1560 1562 1564 1566 1568 1570 1572 1574 1575 1577 1578
1465 1461 1465 1469 1475 1482 1483 1470 1455 1456 1455 1461 1468 1473 1479 1483 1487 1491 1495 1498 1501 1504 1508 1511 1515 1519 1523 1527 1530 1534 1538 1541 1544 1547 1550 1552 1554 1555 1557 1559 1561 1562 1564 1566 1567 1569 1570 1572 1573